Regional Weather Roundup
Issued by NWS

Home | Current Version | Previous Version | Graphics & Text | Print | Product List | Glossary On
Versions: 1 2 3 4 5 6 7 8 9 10 11 12 13 14 15 16 17 18 19 20 21 22 23 24 25 26 27
000
ASUS45 KPSR 211510
RWRAZ

ARIZONA HOURLY REGIONAL WEATHER ROUNDUP
NATIONAL WEATHER SERVICE PHOENIX AZ
800 AM MST TUE NOV 21 2017

NOTE: FAIR INDICATES FEW OR NO CLOUDS BELOW 12,000 FEET WITH NO
SIGNIFICANT WEATHER AND/OR OBSTRUCTIONS TO VISIBILITY.

AZZ001>003-036-211600-
NORTHWEST ARIZONA

CITY           SKY/WX    TMP DP  RH WIND       PRES   REMARKS
BULLHEAD CITY  PTCLDY    63  14  15 N25       30.14S
KINGMAN        PTCLDY    44  14  29 E7        30.24R
$$

AZZ004>008-015-016-018-211600-
NORTH CENTRAL ARIZONA

CITY           SKY/WX    TMP DP  RH WIND       PRES   REMARKS
GRAND CANYON   PTCLDY    29   6  38 CALM      30.35R SMOKE
WILLIAMS       CLEAR     34   9  35 CALM      30.34R
PRESCOTT       PTCLDY    44  13  28 SW5       30.27R
FLAGSTAFF      PTCLDY    32  13  45 CALM      30.34R
PAYSON         CLEAR     55   5  13 N8        30.26R
PAGE           PTCLDY    40  14  34 CALM      30.31R
$$

AZZ009>014-017-211600-
NORTHEAST ARIZONA

CITY           SKY/WX    TMP DP  RH WIND       PRES   REMARKS
WINSLOW        MOCLDY    31   4  31 E3        30.32R
SAINT JOHNS    PTSUNNY   31   4  31 CALM      30.31R
WINDOW ROCK    PTSUNNY   35   7  31 W3        30.31R
SHOW LOW       MOSUNNY   34   7  32 E6        30.34R WCI  29
$$

AZZ540-542>544-546-548-211600-
GREATER PHOENIX AREA

CITY           SKY/WX    TMP DP  RH WIND       PRES   REMARKS
PHOENIX        MOCLDY    55  32  41 E8        30.10R
BUCKEYE        PTCLDY    48  19  32 NW5       30.12R
GLENDALE       MOCLDY    52  28  40 CALM      30.13R
LUKE AFB       CLEAR     51  28  41 NE5       30.10R
DEER VALLEY    MOCLDY    56  22  26 N6        30.11R
SCOTTSDALE     MOCLDY    56  30  37 CALM      30.13R
MESA-FALCON    MOCLDY    55  28  35 NE5       30.12R
MESA-GATEWAY   PTCLDY    48  21  34 E8        30.11R
CHANDLER       MOCLDY    50  30  46 NE3       30.12R
$$

AZZ539-553-211600-
SOUTHWEST MARICOPA COUNTY AND PINAL COUNTY

CITY           SKY/WX    TMP DP  RH WIND       PRES   REMARKS
CASA GRANDE    NOT AVBL
GILA BEND      PTCLDY    54  18  24 NE2       30.11R
$$

AZZ503-504-507>509-211600-
SOUTHEAST ARIZONA

CITY           SKY/WX    TMP DP  RH WIND       PRES   REMARKS
TUCSON         PTSUNNY   51  24  34 S7        30.15R
DAVIS-MONTHAN  PTSUNNY   49  24  37 SE5       30.13R
RYAN FIELD     SUNNY     46  25  42 CALM      30.16
NOGALES        PTSUNNY   43  24  47 CALM      30.17R
SIERRA VISTA   CLOUDY    54  19  25 CALM      30.21R
DOUGLAS        PTSUNNY   39  18  42 S5        30.19R
SAFFORD        MOSUNNY   45  17  32 S6        30.16R
$$

AZZ532-211600-
SOUTHWEST ARIZONA

CITY           SKY/WX    TMP DP  RH WIND       PRES   REMARKS
YUMA           MOCLDY    62  11  13 N10       30.10R
$$

CAZ041-043-047-048-061-525>527-560>570-211600-
SOUTHERN CALIFORNIA

CITY           SKY/WX    TMP DP  RH WIND       PRES   REMARKS
DOWNTOWN L.A.  PTCLDY    59  39  47 CALM      30.04R
L.A. AIRPORT   MOCLDY    64  38  38 E3        30.05R
SAN DIEGO      PTCLDY    58  39  49 N3        30.04R
BURBANK        PTCLDY    58  37  45 CALM      30.06R
ONTARIO        MOCLDY    57  35  43 NE6       30.07R
RIVERSIDE      PTCLDY    57  30  35 NE7       30.08R
PALM SPRINGS   CLEAR     57  30  35 CALM      30.13R
EL CENTRO NAS  MOCLDY    50  20  30 W8        30.12R
IMPERIAL       PTCLDY    50  28  42 W7        30.09R
BLYTHE         PTCLDY    51   8  17 CALM      30.13R
NEEDLES        PTCLDY    55  11  17 W8        30.16R
$$

NVZ020-UTZ003-211600-
SOUTHERN NEVADA-UTAH

CITY           SKY/WX    TMP DP  RH WIND       PRES   REMARKS
LAS VEGAS      MOCLDY    50  16  25 W6        30.24R
SALT LAKE CITY MOCLDY    44  39  82 NW3       30.30R
$$

NMZ009-TXZ055-211600-
NEW MEXICO-WEST TEXAS

CITY           SKY/WX    TMP DP  RH WIND       PRES   REMARKS
ALBUQUERQUE    CLOUDY    46   6  19 N10       30.22S
EL PASO        PTSUNNY   49  18  29 SE5       30.13R
$$


........................KEY........................
SKY/WX - SKY CONDITION/WEATHER
TMP    - TEMPERATURE IN FAHRENHEIT
DP     - DEW POINT IN FAHRENHEIT
RH     - RELATIVE HUMIDITY IN PERCENT
WIND   - DIRECTION AND SPEED IN MILES PER HOUR (MPH)
VRB    - VARIABLE WIND DIRECTION
PRES   - MEAN SEA LEVEL PRESSURE IN INCHES OF MERCURY
         F - FALLING PRESSURE   R - RISING PRESSURE
         S - STEADY PRESSURE
VSB    - VISIBILITY IN MILES
HX     - HEAT INDEX IN FAHRENHEIT
WCI    - WIND CHILL INDEX IN FAHRENHEIT
TC     - TEMPERATURE IN CELSIUS WHICH IS ALSO KNOWN AS
         TEMPERATURE IN CENTIGRADE
AFB    - AIR FORCE BASE
         LUKE AFB IS LUKE AIR FORCE BASE
         DAVIS-MONTHAN IS DAVIS-MONTHAN AIR FORCE BASE
NAS    - NAVAL AIR STATION
         EL CENTRO NAS IS EL CENTRO NAVAL AIR STATION
N/A    - NOT AVAILABLE





USA.gov is the U.S. government's official web portal to all federal, state and local government web resources and services.